This is the latest recevied weather packets stored in our database for station/object K3HM. If no packets are shown the sender has not sent any weather packets the latest 1 day(s).
| Time | Temp. | Humidity | Pressure | Rain* | Wind** | Luminosity | Snow |
|---|---|---|---|---|---|---|---|
| 1778094815 | 10.56° C | 97% | 1010 hPa | 0 mm | - | 63 W/m² | - |
| 1778092694 | 11.67° C | 95% | 1009.9 hPa | 0 mm | - | 69 W/m² | - |
| 1778092389 | 12.22° C | 95% | 1009.8 hPa | 0 mm | - | 69 W/m² | - |
| 1778091481 | 12.22° C | 95% | 1009.8 hPa | 0 mm | - | 117 W/m² | - |
| 1778091179 | 12.22° C | 95% | 1009.9 hPa | 0 mm | - | 128 W/m² | - |
| 1778088147 | 13.33° C | 95% | 1009.5 hPa | 0 mm | - | 189 W/m² | - |
| 1778087845 | 13.89° C | 95% | 1009.5 hPa | 0 mm | - | 163 W/m² | - |
| 1778087542 | 13.89° C | 94% | 1009.5 hPa | 0 mm | - | 208 W/m² | - |
| 1778086936 | 13.89° C | 95% | 1009.4 hPa | 0 mm | - | 348 W/m² | - |
| 1778086331 | 13.89° C | 96% | 1008.9 hPa | 0 mm | - | 196 W/m² | - |
| 1778084813 | 13.89° C | 97% | 1009.2 hPa | 0 mm | - | 73 W/m² | - |
| 1778083602 | 13.33° C | 97% | 1008.9 hPa | 0 mm | - | 58 W/m² | - |
| 1778083299 | 13.33° C | 97% | 1009.2 hPa | 0 mm | - | 55 W/m² | - |
| 1778082694 | 13.33° C | 98% | 1008.9 hPa | 0 mm | - | 98 W/m² | - |
| 1778081556 | 13.33° C | 98% | 1009 hPa | 0 mm | - | 72 W/m² | - |
| 1778081253 | 13.33° C | 98% | 1008.8 hPa | 0 mm | - | 70 W/m² | - |
| 1778080345 | 13.33° C | 98% | 1008.7 hPa | 0 mm | - | 33 W/m² | - |
| 1778080042 | 13.33° C | 97% | 1008.7 hPa | 0 mm | - | 51 W/m² | - |
| 1778078830 | 13.89° C | 95% | 1008.2 hPa | 0 mm | - | 70 W/m² | - |
| 1778078527 | 13.89° C | 95% | 1008 hPa | 0 mm | - | 86 W/m² | - |
| 1778077318 | 13.33° C | 95% | 1007.9 hPa | 0 mm | - | 50 W/m² | - |
| 1778075805 | 13.33° C | 98% | 1008 hPa | 0 mm | - | 58 W/m² | - |
| 1778074893 | 12.78° C | 98% | 1008.4 hPa | 0 mm | - | 42 W/m² | - |
| 1778074591 | 12.78° C | 98% | 1008.4 hPa | 0 mm | - | 40 W/m² | - |
| 1778074288 | 12.78° C | 97% | 1008.2 hPa | 0 mm | - | 64 W/m² | - |
* Rain latest hour (hover to see other rain measurements)
** Current wind speed in m/s (hover to see current wind gust speed)